Regional Weather Roundup
Issued by NWS Cleveland, OH

Home | Current Version | Previous Version | Graphics & Text | Print | Product List | Glossary On
Versions: 1 2 3 4 5 6 7 8 9 10 11 12 13 14 15 16 17 18 19 20 21 22 23 24 25 26 27 28 29 30 31 32 33 34 35 36 37 38 39 40 41 42 43 44 45 46 47 48 49 50
000
ASUS41 KCLE 240700
RWRCLE
OHIO REGIONAL WEATHER ROUNDUP
NATIONAL WEATHER SERVICE WILMINGTON, OH
300 AM EDT TUE OCT 24 2017

NOTE: "FAIR" INDICATES FEW OR NO CLOUDS BELOW 12,000 FEET WITH NO
SIGNIFICANT WEATHER AND/OR OBSTRUCTIONS TO VISIBILITY.

OHZ001>008-015>018-024>027-034-035-043-044-240800-
   NORTHWEST OHIO

CITY           SKY/WX    TMP DP  RH WIND       PRES   REMARKS
DEFIANCE       CLOUDY    49  45  86 S10       29.59S
FINDLAY        CLOUDY    49  44  83 S9        29.61S
TOLEDO EXPRESS CLOUDY    48  47  96 SW6       29.57F
TOLEDO EXEC    LGT RAIN  50  44  80 W10       29.59S
LIMA           CLOUDY    48  47  96 SW14      29.64R
$$

OHZ009>014-019>023-028>033-038-089-240800-
   NORTHEAST OHIO

CITY           SKY/WX    TMP DP  RH WIND       PRES   REMARKS
CLE-HOPKINS    CLOUDY    53  49  86 SW15      29.61R
CLE-LAKEFRONT  CLOUDY    54  49  83 SW18G26   29.58R
CUY CO. ARPT   NOT AVBL
LORAIN-ELYRIA  CLOUDY    50  44  80 W18G29    29.62R
ASHTABULA      MOCLDY    58  54  86 S16G29    29.56F
AKRON-CANTON   LGT RAIN  53  50  89 W13G22    29.63R FOG
WOOSTER        NOT AVBL
MANSFIELD      CLOUDY    49  47  93 SW12G22   29.64S
YOUNGSTOWN     CLOUDY    57  53  86 SW15G26   29.60R
$$

OHZ042-051>053-060>062-070>072-077>081-240800-
  SOUTHWEST OHIO

CITY           SKY/WX    TMP DP  RH WIND       PRES   REMARKS
CINC-COVINGTON LGT RAIN  47  47 100 S9        29.73F
CINC-LUNKEN    CLOUDY    48  46  93 SW7       29.76F
HAMILTON       LGT RAIN  49  46  90 S6        29.73F
DAYTON         NOT AVBL
WRIGHT-PAT AFB NOT AVBL
DAYTON GENERAL CLOUDY    47  45  93 S12       29.70F
WILMINGTON     FAIR      45  45 100 SW10      29.72F
$$

OHZ036-037-039>041-045>050-054>059-063>069-073>076-082>088-240800-
  CENTRAL AND SOUTHEAST OHIO

CITY           SKY/WX    TMP DP  RH WIND       PRES   REMARKS
COLUMBUS       MOCLDY    51  47  86 SW12      29.71R
OSU AIRPORT    FAIR      49  47  93 SW12      29.70R
BOLTON FIELD   NOT AVBL
RICKENBACK AFB NOT AVBL
NEWARK         CLOUDY    51  46  83 SW7       29.69R
MARION         CLOUDY    48  44  86 SW6       29.66R
LANCASTER      FAIR      49  32  52 W7        29.72R
ZANESVILLE     CLOUDY    53  50  89 W10       29.69R
NEW PHILLY     RAIN      55  53  93 W7        29.66R FOG
$$



USA.gov is the U.S. government's official web portal to all federal, state and local government web resources and services.